Marrakech, Morocco

7:48 AM WET on February 23, 2017 (GMT +0000)
Marrakech

Weather History for GMMX - November, 2013

Change the Weather History Date:

Sunday, November 17, 2013

  Actual Average Record
Temperature  
Mean Temperature 54 °F -  
Max Temperature 61 °F 67 °F 80 °F (1997)
Min Temperature 48 °F 46 °F 39 °F (2001)
Degree Days  
Heating Degree Days 10    
Growing Degree Days 4 (Base 50)    
Moisture  
Dew Point 42 °F    
Average Humidity 60    
Maximum Humidity 94    
Minimum Humidity 28    
Precipitation  
Precipitation 0.04 in 0.05 in - ()
Sea Level Pressure  
Sea Level Pressure 30.05 in    
Wind  
Wind Speed 6 mph ()    
Max Wind Speed 13 mph    
Max Gust Speed 17 mph    
Visibility 6.1 miles    
Events Rain    
Averages and records for this station are not official NWS values.
T = Trace of Precipitation, MM = Missing Value Source: Averaged Metar Reports

Daily Weather History Graph

Daily Weather History Graph

Search for Another Location

Airport or City:

Trip Planner

Search our weather history database for the weather conditions in past years. The results will help you decide how hot, cold, wet, or windy it might be!

Date:

Astronomy

Nov. 17, 2013 Rise Set
Actual Time 7:01 AM WET 5:32 PM WET
Civil Twilight 6:35 AM WET 5:57 PM WET
Nautical Twilight 6:06 AM WET 6:27 PM WET
Astronomical Twilight 5:37 AM WET 6:56 PM WET
Moon 5:38 PM WET (11/17) 6:44 AM WET (11/17)
Length of Visible Light 11h 21m
Length of Day
10h 30m
Full, 100% of the Moon is Illuminated
Nov 17
Full
Nov 17
Full
Nov 25
Last Quarter
Dec 3
New
Dec 9
First Quarter

Hourly Weather History & Observations

Time (WET) Temp. Dew Point Humidity Pressure Visibility Wind Dir Wind Speed Gust Speed Precip Events Conditions
12:00 AM 57.2 °F 42.8 °F 59% 30.01 in 6.2 mi West 5.8 mph - N/A   Mostly Cloudy
12:30 AM 57.2 °F 41.0 °F 55% 30.01 in 6.2 mi WNW 8.1 mph - N/A   Mostly Cloudy
1:00 AM 55.4 °F 41.0 °F 58% 30.01 in 6.2 mi WNW 4.6 mph - N/A   Mostly Cloudy
1:30 AM 55.4 °F 41.0 °F 58% 30.01 in 6.2 mi West 4.6 mph - N/A   Mostly Cloudy
2:00 AM 55.4 °F 41.0 °F 58% 30.01 in 6.2 mi West 4.6 mph - N/A   Mostly Cloudy
2:30 AM 55.4 °F 41.0 °F 58% 30.01 in 6.2 mi West 4.6 mph - N/A   Mostly Cloudy
3:00 AM 54 °F 40 °F 49% 30.01 in 6 mi West 2.3 mph - -   Mostly Cloudy
3:00 AM 53.6 °F 41.0 °F 62% 30.01 in 6.2 mi West 2.3 mph - N/A   Mostly Cloudy
3:30 AM 53.6 °F 41.0 °F 62% 30.01 in 6.2 mi West 3.5 mph - N/A   Mostly Cloudy
4:00 AM 53.6 °F 41.0 °F 62% 30.01 in 6.2 mi West 4.6 mph - N/A   Mostly Cloudy
4:30 AM 53.6 °F 39.2 °F 58% 30.01 in 6.2 mi WNW 4.6 mph - N/A   Mostly Cloudy
5:00 AM 53.6 °F 42.8 °F 67% 30.01 in 6.2 mi NW 6.9 mph - N/A   Mostly Cloudy
5:30 AM 53.6 °F 42.8 °F 67% 30.01 in 6.2 mi North 6.9 mph - N/A   Mostly Cloudy
6:00 AM 53 °F 44 °F 63% 30.02 in 5 mi NW 8.1 mph - -   Partly Cloudy
6:00 AM 51.8 °F 44.6 °F 76% 30.01 in 5.0 mi NW 8.1 mph - N/A   Mostly Cloudy
6:30 AM 51.8 °F 46.4 °F 82% 30.01 in 5.0 mi WNW 6.9 mph - N/A Rain Rain Showers
7:00 AM 50.0 °F 46.4 °F 87% 30.01 in 5.0 mi WNW 4.6 mph - N/A Rain Rain Showers
7:30 AM 50.0 °F 48.2 °F 94% 30.04 in 6.2 mi SW 4.6 mph - N/A   Mostly Cloudy
8:00 AM 51.8 °F 46.4 °F 82% 30.04 in 6.2 mi SSW 4.6 mph - N/A   Mostly Cloudy
8:30 AM 51.8 °F 46.4 °F 82% 30.04 in 6.2 mi SW 5.8 mph - N/A   Mostly Cloudy
9:00 AM 52 °F 47 °F 76% 30.07 in 6 mi SW 6.9 mph - -   Clear
9:00 AM 51.8 °F 46.4 °F 82% 30.06 in 6.2 mi SW 6.9 mph - N/A   Mostly Cloudy
9:30 AM 53.6 °F 46.4 °F 77% 30.06 in 6.2 mi WSW 9.2 mph - N/A   Mostly Cloudy
10:00 AM 55.4 °F 48.2 °F 77% 30.06 in 6.2 mi West 6.9 mph - N/A   Scattered Clouds
10:30 AM 55.4 °F 46.4 °F 72% 30.09 in 6.2 mi West 6.9 mph - N/A   Scattered Clouds
11:00 AM 55.4 °F 46.4 °F 72% 30.06 in 6.2 mi West 6.9 mph - N/A   Scattered Clouds
11:30 AM 57.2 °F 46.4 °F 67% 30.06 in 6.2 mi WNW 9.2 mph - N/A   Scattered Clouds
12:00 PM 58 °F 43 °F 47% 30.06 in 6 mi NW 6.9 mph - -   Clear
12:00 PM 57.2 °F 44.6 °F 63% 30.06 in 6.2 mi NW 6.9 mph - N/A   Scattered Clouds
12:30 PM 59.0 °F 42.8 °F 55% 30.06 in 6.2 mi Variable 5.8 mph 17.3 mph N/A   Scattered Clouds
1:00 PM 60.8 °F 41.0 °F 48% 30.04 in 6.2 mi WNW 9.2 mph - N/A   Scattered Clouds
1:30 PM 60.8 °F 39.2 °F 45% 30.04 in 6.2 mi WNW 8.1 mph - N/A   Scattered Clouds
2:00 PM 60.8 °F 35.6 °F 39% 30.04 in 6.2 mi West 9.2 mph - N/A   Scattered Clouds
2:30 PM 60.8 °F 37.4 °F 42% 30.04 in 6.2 mi West 9.2 mph - N/A   Scattered Clouds
3:00 PM 61 °F 36 °F 28% 30.02 in 6 mi West 11.5 mph - -   Partly Cloudy
3:00 PM 60.8 °F 37.4 °F 42% 30.04 in 6.2 mi West 12.7 mph - N/A   Scattered Clouds
3:30 PM 60.8 °F 35.6 °F 39% 30.04 in 6.2 mi West 11.5 mph - N/A   Scattered Clouds
4:00 PM 62.6 °F 37.4 °F 39% 30.04 in 6.2 mi West 10.4 mph - N/A   Mostly Cloudy
4:30 PM 60.8 °F 35.6 °F 39% 30.06 in 6.2 mi West 9.2 mph - N/A   Mostly Cloudy
5:00 PM 59.0 °F 35.6 °F 42% 30.06 in 6.2 mi West 6.9 mph - N/A   Mostly Cloudy
5:30 PM 59.0 °F 37.4 °F 45% 30.06 in 6.2 mi WSW 9.2 mph - N/A   Mostly Cloudy
6:00 PM 58 °F 38 °F 35% 30.05 in 6 mi West 5.8 mph - -   Mostly Cloudy
6:00 PM 59.0 °F 37.4 °F 45% 30.06 in 6.2 mi WSW 5.8 mph - N/A   Mostly Cloudy
6:30 PM 57.2 °F 39.2 °F 51% 30.06 in 6.2 mi WNW 4.6 mph - N/A   Mostly Cloudy
7:00 PM 57.2 °F 41.0 °F 55% 30.06 in 6.2 mi NNE 6.9 mph - N/A   Mostly Cloudy
7:30 PM 57.2 °F 39.2 °F 51% 30.09 in 6.2 mi North 4.6 mph - N/A   Mostly Cloudy
8:00 PM 55.4 °F 41.0 °F 58% 30.09 in 6.2 mi NNE 3.5 mph - N/A   Scattered Clouds
8:30 PM 53.6 °F 41.0 °F 62% 30.09 in 6.2 mi NNE 5.8 mph - N/A   Scattered Clouds
9:00 PM 53 °F 40 °F 52% 30.10 in 6 mi NE 6.9 mph - -   Partly Cloudy
9:00 PM 53.6 °F 41.0 °F 62% 30.09 in 6.2 mi NE 6.9 mph - N/A   Scattered Clouds
9:30 PM 51.8 °F 41.0 °F 67% 30.09 in 6.2 mi East 8.1 mph - N/A   Partly Cloudy
10:00 PM 51.8 °F 42.8 °F 71% 30.09 in 6.2 mi East 8.1 mph - N/A   Partly Cloudy
10:30 PM 50.0 °F 42.8 °F 76% 30.09 in 6.2 mi East 5.8 mph - N/A   Scattered Clouds
11:00 PM 48.2 °F 42.8 °F 82% 30.09 in 6.2 mi East 4.6 mph - N/A   Scattered Clouds
11:30 PM 48.2 °F 42.8 °F 82% 30.09 in 6.2 mi ESE 3.5 mph - N/A   Scattered Clouds